www.pogodaiklimat.ru

Погода и климат >> Архив погоды >> Непал >> Симара


ПОГОДА в Симаре

  • Прогноз погоды в Симаре
  • Монитор погоды в Симаре

АРХИВ ПОГОДЫ в Симаре

Время (UTC), дата Ветер
(напр.,м/с)
 
Видим.   Явления Облачность Т
(С)
Тd
(С)
f
(%)
Тe
(С)
Тes
(С)
Комфортность P
(гПа)
Po
(гПа)
Тmin
(С)
Tmax
(С)
R
(мм)
R24
(мм)
S
(см)
12 14.08 В 5 10 км 6/4 200 м
[Cb cap Ci fib]
+31.8 +27.9 80 +52 +52 опасность
перегрева
1000.5 985.6 +34.0
06 15.08 В 4 10 км 8/3 600 м
[Cu hum Ac trans Ci fib]
+31.4 +25.4 71 +46 +52 опасность
перегрева
1004.6 989.7
09 15.08 В 4 10 км 5/3 600 м
[Cu med, cong Ci fib]
+33.6 +27.2 69 +52 +58 опасность
перегрева
1002.0 987.1
12 15.08 В 2 10 км 4/1 600 м
[Cu hum Ci fib]
+33.0 +26.1 67 +49 +49 опасность
перегрева
999.9 985.0 +34.5
00 16.08 штиль 0 10 км 9/4 200 м
[Cu hum Ac As]
+26.4 +25.4 94 +38 +38 очень
душно
1002.3 987.4
03 16.08 штиль 0 8000 м 6/1 200 м
[Cu hum Ac trans Ci fib]
+29.8 +26.7 83 +46 +55 опасность
перегрева
1003.7 988.8 +24.5 36
06 16.08 штиль 0 10 км 5/4 600 м
[Cu med, cong Ci fib]
+33.0 +26.6 69 +50 +66 опасность
перегрева
1003.0 988.1
09 16.08 З 2 10 км слаб. морось {туман} 9/5 600 м
[Cu Sc Ac As]
+28.0 +26.6 92 +43 +46 опасность
перегрева
1001.1 986.2
12 16.08 З 2 10 км {дождь, морось} 9/4 200 м
[Cb calv Ac As]
+29.0 +26.2 85 +44 +44 опасность
перегрева
1000.0 985.1 +34.6 2
00 17.08 штиль 0 6000 м 9/4 200 м
[Cu hum Ac As]
+26.0 +25.1 95 +37 +37 очень
душно
1002.5 987.6
03 17.08 штиль 0 10 км 9/4 200 м
[Cu hum Ac As]
+29.8 +26.7 83 +46 +49 опасность
перегрева
1003.7 988.8 +26.0 2
06 17.08 Ю 2 10 км 6/1 600 м
[Cu hum Ac trans Ci fib]
+32.0 +26.5 73 +49 +63 опасность
перегрева
1003.1 988.4
09 17.08 Ю 2 10 км 8/3 600 м
[Cu med, cong Ac trans Ci fib]
+32.6 +27.5 75 +52 +58 опасность
перегрева
1001.6 986.7
12 17.08 З 1 8000 м 9/4 200 м
[Cu med, cong Ac trans]
+32.4 +27.0 73 +50 +50 опасность
перегрева
1001.1 986.2 +34.5
00 18.08 штиль 0 10 км 4/3 200 м
[Cu hum Ac As]
+25.6 +25.1 97 +37 +37 очень
душно
1003.5 988.6
03 18.08 штиль 0 10 км 6/3 200 м
[Cu hum Ac As]
+30.0 +26.7 83 +47 +53 опасность
перегрева
1004.0 989.1 +25.5
06 18.08 В 1 10 км 3/1 600 м
[Cu hum Ci fib]
+34.2 +27.5 68 +53 +74 опасность
перегрева
1004.2 989.3
09 18.08 В 2 8000 м 8/3 200 м
[Cu med, cong Ci fib]
+34.7 +27.3 66 +54 +62 опасность
перегрева
1001.9 989.7
12 18.08 штиль 0 10 км 9/4 200 м
[Cu hum Ac As]
+30.2 +27.8 87 +49 +50 опасность
перегрева
1002.0 987.1 +34.5 10
00 19.08 штиль 0 10 км 6/3 200 м
[Cu hum Ac As]
+26.6 +25.6 94 +39 +39 очень
душно
1004.2 989.3
03 19.08 В 2 10 км 8/4 200 м
[Cu hum Ac trans]
+29.2 +25.9 82 +44 +47 опасность
перегрева
1005.9 991.0 +26.5 8
09 19.08 В 4 10 км 8/4 600 м
[Cu med, cong Ac trans]
+33.6 +25.1 61 +47 +51 опасность
перегрева
1003.7 988.8
12 19.08 В 2 10 км 8/4 600 м
[Cu hum Ac trans]
+31.0 +29.3 91 +55 +55 опасность
перегрева
1001.9 987.9 +34.5
00 20.08 В 1 10 км 5/3 600 м
[Cu hum Ac cast]
+26.6 +25.3 93 +39 +39 очень
душно
1003.7 988.8
03 20.08 В 4 10 км 5/3 600 м
[Cu hum Ac cast]
+30.2 +26.1 79 +46 +50 опасность
перегрева
1004.8 989.9 +26.6
06 20.08 В 4 10 км 5/1 600 м
[Cu hum Ac trans]
+33.0 +26.1 67 +49 +58 опасность
перегрева
1004.4 992.2
09 20.08 ЮВ 4 10 км 3/3 600 м
[Cu hum]
+34.4 +25.0 58 +48 +55 опасность
перегрева
1001.7 986.8
12 20.08 штиль 0 8000 м 4/4 600 м
[Cu med, cong]
+32.4 +27.0 73 +50 +51 опасность
перегрева
1000.5 985.6 +35.5
00 21.08 С 2 6000 м 3/1 600 м
[Cu hum Ci fib]
+26.4 +24.9 91 +38 +38 очень
душно
1001.9 987.0
03 21.08 В 3 7000 м 1/1 600 м
[Cu hum]
+31.6 +24.7 67 +45 +52 опасность
перегрева
1002.7 987.8 +26.2
06 21.08 В 3 10 км 5/1 600 м
[Cu hum Ci fib]
+33.4 +27.0 69 +51 +66 опасность
перегрева
1002.2 987.3
09 21.08 В 2 10 км 1/1 600 м
[Cu hum]
+35.0 +26.8 63 +53 +64 опасность
перегрева
1000.8 985.9

 

Местоположение метеостанции Симара (Непал): широта 27.16 долгота 84.98 высота над уровнем моря 137 м.

В архиве по умолчанию представлена погода в Симаре за последнюю неделю. Архивные данные за месяц целиком и за предыдущие месяцы, начиная с января 2011 года, Вы можете получить, выбрав интересующий диапазон дат из раскрывающегося списка и нажав кнопку "Ввод!".


*Определитесь, кто Вы:
робот инопланетянин человек

Внимание! Время в таблицах - всемирное. Для получения местного времени необходимо прибавить поправку, которая равна 5.5 ч.

Смотрите также архив погоды в соседних городах и на ближайших метеорологических станциях:

Погода в Катманду (Непал) (71 км)
Погода в Окхалдхунге (Непал) (151 км)
Погода в Покхаре (Непал) (152 км)
Погода в Чхапре (Бихар, Индия) (155 км)
Погода в Сиддхартханагаре (Непал) (156 км)
Погода в Горакпуре (Уттар-Прадеш, Индия) (166 км)
Погода в Патне (Бихар, Индия) (174 км)
Погода в Дханкуте (Непал) (236 км)
Погода в Биратнагаре (Непал) (239 км)
Погода в Гхазипуре (Уттар-Прадеш, Индия) (242 км)

Пояснения к столбцам:

Ветер - указаны скорость ветра в м/с - средняя за 10 мин, порывы в срок и между сроками (в фигурных скобках) и направление, откуда дует ветер: С - северный, СВ - северо-восточный, В - восточный, ЮВ - юго-восточный, Ю - южный, ЮЗ - юго-западный, З - западный, СЗ - северо-западный.
Видимость - горизонтальная дальность видимости в метрах или километрах. При видимости от 1 до 10 км при отсутствии осадков обычно наблюдается дымка, при ухудшении видимости до 1 км и менее - туман. В сухую погоду видимость может ухудшаться дымом, пылью или мглою.
Явления - указаны атмосферные явления, наблюдавшиеся в срок или в последний час перед сроком; фигурными скобками обозначены явления, наблюдавшиеся между сроками (за 1-3 часа до срока); квадратными скобками обозначены град или гололедные отложения с указанием их диаметра в мм.
Облачность - указаны через наклонную черту общая и нижняя облачность в баллах и высота нижней границы облаков в метрах; квадратными скобками обозначены формы облаков: Ci - перистые, Cs - перисто-слоистые, Cc - перисто-кучевые, Ac - высококучевые, As - высокослоистые, Sc - слоисто-кучевые, Ns - слоисто-дождевые, Cu - кучевые, Cb - кучево-дождевые. Подробнее классификацию облаков см. в Атласе облаков (PDF).
T - Температура воздуха - температура, измеренная на высоте 2 м над землей.
Td - Температура точки росы - температура, при понижении до которой содержащийся в воздухе водяной пар достигнет насыщения.
f - Относительная влажность воздуха - влажноcть воздуха, измеренная на высоте 2 м над землей.
Te - Эффективная температура - температура, которую ощущает одетый по сезону человек в тени. Характеристика душности погоды. При расчете учитывается влияние влажности воздуха и скорости ветра на теплоощущения человека.
Tes - Эффективная температура на солнце - температура, которую ощущает человек, с поправкой на солнечный нагрев. Характеристика знойности погоды. Зависит от высоты солнца над горизонтом, облачности и скорости ветра. Ночью, в пасмурную погоду, а также при ветре 12 м/с и более поправка равна нулю.
P - Атмосферное давление - приведенное к уровню моря атмосферное давление.
Po - Атмосферное давление - измеренное на уровне метеостанции атмосферное давление.
Tmin - Минимальная температура - минимум температуры воздуха на высоте 2 м над землей.
Tmax - Максимальная температура - максимум температуры воздуха на высоте 2 м над землей.
R - Количество осадков - Количество выпавших осадков за период времени, мм. При наведении курсора мыши на число - период времени, за который выпало указанное количество осадков.
R24 - Количество осадков - Количество выпавших осадков за 24 часа, мм.
S - Снежный покров - Высота снежного покрова, см. При наведении курсора мыши на число - состояние снежного покрова и степень покрытия местности в баллах.